Wind_Speed
6 4 3 3 2 2 1 2 3 5 4 4 4 3 4 3 4 5 6 7 7 8 9 10 11 12 13 14 14 15 16 16 16 16 17 17 17 18 18 18 19 19 20 20 20 20 19 18 18
6 5 4 4 3 2 1 2 4 5 4 4 3 2 2 3 4 5 6 7 8 8 9 10 11 11 12 12 14 14 15 15 15 15 15 16 16 17 17 18 18 19 19 20 21 21 21 21 19
7 6 5 5 3 2 0 1 3 4 4 4 3 2 3 4 5 6 7 8 8 9 9 10 10 11 12 12 13 13 14 14 13 14 14 15 15 16 16 17 18 18 19 20 21 21 22 21 21
9 7 7 5 4 2 1 1 2 4 4 4 3 2 4 5 5 6 7 8 8 8 9 10 10 11 11 12 12 12 12 12 12 13 13 14 15 15 16 17 17 18 19 20 21 21 22 21 21
11 9 8 6 4 3 2 2 2 4 3 4 3 3 4 5 5 6 6 7 7 8 9 10 10 10 11 11 11 11 11 11 12 12 13 14 14 15 16 17 17 18 19 20 21 21 21 22 22
13 11 9 7 5 4 4 3 4 3 3 4 3 4 4 5 5 6 6 7 8 9 9 9 9 9 10 10 10 11 11 12 12 13 13 14 15 15 16 17 17 18 19 20 21 21 22 22 22
15 13 11 8 7 6 5 5 5 5 5 5 4 3 4 5 5 6 7 8 9 9 9 9 8 8 9 9 10 10 11 12 13 14 14 15 16 16 16 16 17 17 18 19 20 21 22 22 23
16 15 12 10 8 7 6 5 6 7 6 6 5 4 4 4 5 6 7 8 9 9 9 8 7 7 8 9 10 10 11 12 13 14 15 16 17 17 16 17 17 17 18 18 19 20 21 22 23
18 16 13 11 10 9 8 7 6 6 6 5 4 4 4 5 6 6 7 8 8 9 8 8 8 8 8 9 10 11 12 13 14 15 16 17 17 17 17 17 17 18 18 18 18 19 21 22 22
19 17 15 14 12 10 9 9 9 8 7 6 5 4 5 5 6 6 7 7 8 8 7 8 7 8 8 9 11 12 13 14 15 16 17 17 17 17 17 17 18 18 18 18 18 19 20 21 22
20 18 17 14 13 11 10 10 11 11 8 6 5 4 4 5 6 7 7 7 7 7 7 7 7 8 9 10 11 13 14 15 16 17 17 17 17 17 17 18 18 18 18 18 18 19 19 20 21
20 19 17 15 14 13 12 12 11 11 9 7 6 4 4 6 7 7 7 7 7 7 6 7 7 8 9 10 11 13 14 15 16 17 17 17 17 17 18 18 18 18 18 18 18 18 19 19 20
20 18 16 15 14 13 13 12 11 9 10 8 6 5 6 7 7 8 8 7 7 7 7 7 8 8 9 10 12 13 14 16 17 17 17 17 18 18 18 18 18 18 18 18 17 17 18 19 19
19 17 16 14 14 12 11 8 8 8 8 7 6 6 7 7 8 8 8 7 7 7 7 7 8 8 9 10 12 13 15 16 17 17 17 17 18 18 18 18 18 18 17 17 16 16 16 18 19
18 15 13 13 11 9 7 6 6 6 6 6 6 7 8 8 9 8 7 7 7 7 7 7 7 8 9 10 12 13 15 16 17 16 17 17 18 18 18 18 18 18 17 16 15 15 15 16 18
17 14 11 10 8 7 5 5 4 4 5 5 6 7 8 8 9 8 8 8 8 8 7 7 7 7 8 10 12 13 15 16 17 16 17 18 18 18 18 18 18 17 17 15 14 14 14 14 16
16 14 11 9 8 6 5 4 4 4 4 5 6 7 8 8 8 8 8 8 8 8 8 7 7 7 8 10 12 14 15 16 16 17 17 18 18 18 18 18 18 17 16 15 13 12 12 12 14
15 13 12 10 8 6 5 4 3 4 4 5 7 7 8 8 8 8 8 8 8 9 8 7 7 7 8 10 12 14 15 16 16 17 17 18 18 18 18 18 17 17 15 14 12 10 10 10 11
15 14 13 11 9 6 5 4 4 4 5 6 6 7 7 8 8 8 8 8 8 9 8 7 7 7 8 10 12 13 14 16 16 17 18 18 18 18 18 18 17 16 15 13 10 8 8 8 9
13 13 12 11 8 7 6 5 4 3 4 5 5 6 7 7 8 8 8 8 8 8 8 7 6 7 8 9 11 13 14 15 16 17 18 18 18 18 18 17 16 15 14 12 9 7 6 7 8
14 13 13 11 9 7 6 5 3 2 3 4 5 6 6 7 7 7 8 8 8 8 8 7 6 7 8 9 11 12 14 15 16 17 18 18 18 17 18 17 15 14 13 11 9 7 4 4 6
15 14 14 11 10 8 7 5 3 2 3 4 5 6 6 7 7 7 8 8 8 8 8 7 6 7 8 9 10 12 13 15 16 17 18 18 18 17 17 17 15 14 12 11 9 6 4 2 4
15 14 13 11 10 8 6 4 1 2 4 5 6 6 7 7 7 7 7 7 8 8 8 7 7 7 8 9 9 11 12 14 16 17 18 18 18 17 16 16 15 13 12 10 8 6 3 2 2
14 13 12 10 8 7 4 2 2 3 5 6 6 6 7 7 7 7 7 8 8 8 8 8 8 8 8 9 9 10 12 14 15 16 17 18 18 17 16 16 14 13 11 9 7 6 3 1 1
13 12 11 9 7 5 3 2 3 4 6 6 6 6 7 8 8 8 8 8 8 8 8 8 9 9 9 9 9 10 11 13 15 15 17 17 17 16 15 15 14 12 11 10 8 6 4 1 1
11 10 8 7 5 4 3 3 4 5 7 7 7 7 8 9 10 9 10 9 9 9 9 9 9 10 10 10 10 10 11 12 14 15 16 16 16 16 15 15 14 12 11 10 8 6 4 2 0
9 8 6 5 3 3 3 4 5 6 7 8 8 8 9 9 10 10 10 10 10 10 10 10 10 11 11 11 11 11 12 13 13 14 15 15 15 15 15 14 14 12 11 9 8 6 4 3 1
8 6 5 4 3 3 4 5 6 7 8 8 9 9 9 10 10 11 11 11 12 12 12 12 12 12 12 12 12 12 12 13 13 14 14 14 14 14 14 13 13 12 11 9 7 6 5 3 2
5 4 3 2 3 4 5 6 7 7 8 9 10 10 10 11 11 12 12 12 13 13 14 14 14 14 14 14 14 14 13 13 14 14 14 14 13 13 13 13 12 11 10 8 7 5 4 3 1
3 2 1 2 3 4 5 5 7 7 8 9 10 11 11 12 13 13 13 14 14 14 14 15 16 16 16 16 16 16 15 15 15 15 15 14 13 13 12 12 11 11 10 8 6 5 4 3 1
Wind_Direction
264 272 288 305 311 336 190 186 177 175 170 178 182 193 206 230 260 283 297 304 307 308 310 310 310 311 311 311 311 311 311 311 310 307 306 303 299 295 292 289 285 281 276 273 271 266 265 264 264
258 265 280 299 306 313 151 156 160 169 172 181 196 210 238 269 284 299 307 311 309 309 309 310 311 312 312 313 313 313 314 314 314 312 309 307 304 300 296 292 287 284 280 276 272 267 263 261 260
247 256 266 282 302 321 251 174 171 179 192 201 217 250 280 291 305 312 313 312 311 310 311 311 312 314 315 317 317 318 319 320 319 318 314 311 308 306 301 295 290 285 282 278 274 269 264 260 258
241 246 257 270 293 310 315 198 211 213 206 213 219 268 293 302 311 317 320 315 312 313 313 313 315 317 319 321 322 323 324 326 325 324 320 316 312 307 303 297 292 287 282 278 274 269 264 260 257
239 244 252 262 273 274 246 250 263 251 242 232 233 274 295 300 305 311 316 320 317 315 316 317 319 321 323 324 326 328 329 329 330 328 325 321 317 312 307 301 294 287 284 281 276 271 265 262 257
238 241 246 253 259 269 253 244 263 266 250 240 252 266 283 297 303 308 308 315 318 318 318 317 321 325 326 330 333 333 333 332 331 329 326 322 318 314 309 304 298 292 286 281 277 272 266 260 256
233 238 242 249 256 260 245 245 250 251 260 258 261 277 287 295 301 304 305 310 315 316 318 322 326 327 329 333 334 334 333 332 331 329 326 323 319 315 311 306 301 295 290 284 277 272 266 261 257
232 236 239 243 249 250 251 255 257 257 260 258 263 274 292 298 304 304 306 308 313 315 318 323 326 329 331 334 335 334 332 331 330 327 325 322 320 316 312 308 302 297 292 287 279 272 266 261 257
230 233 237 239 241 246 255 257 259 257 260 255 251 273 291 298 301 302 304 306 310 314 319 324 328 331 332 333 333 333 331 330 328 326 324 322 320 317 313 309 304 299 294 289 281 273 266 260 255
226 229 234 238 240 248 253 253 261 254 252 260 254 274 288 298 301 303 305 306 308 311 320 327 327 330 331 331 332 332 329 328 327 325 323 322 321 318 314 310 305 300 294 290 283 275 268 260 254
223 228 233 235 240 249 257 261 265 264 260 257 257 266 282 294 299 302 300 303 304 309 316 321 323 325 327 329 331 331 329 328 327 326 324 323 321 318 315 311 308 302 297 291 284 276 268 260 252
222 227 235 243 249 252 257 261 267 271 264 261 262 274 284 293 300 301 298 299 302 304 306 308 312 316 321 326 330 332 331 329 329 328 327 325 323 321 317 314 310 305 299 293 285 277 269 259 251
221 226 232 243 250 253 255 257 261 270 261 259 261 270 280 292 297 298 295 294 297 300 298 298 304 311 319 324 329 332 333 332 330 330 329 327 326 323 321 319 315 308 302 296 288 279 268 258 251
216 224 233 242 245 251 249 252 256 267 259 260 265 278 285 293 292 293 293 291 295 296 294 295 302 310 319 326 331 335 336 335 334 332 330 329 328 326 323 321 318 313 307 301 292 281 269 257 248
213 219 229 234 241 241 244 251 254 254 249 257 268 277 284 286 291 291 292 290 292 290 291 295 303 311 320 328 334 337 338 338 337 335 332 331 330 328 326 324 321 318 312 306 296 283 271 258 248
207 212 223 230 227 230 241 248 241 230 240 253 265 274 280 283 287 287 286 287 288 289 291 295 302 311 320 330 336 338 339 340 339 337 335 334 332 330 329 327 325 322 316 308 300 285 271 258 247
200 207 215 211 205 211 213 213 204 211 237 254 265 273 280 283 283 283 283 285 286 287 289 293 300 311 322 331 337 339 341 342 341 339 336 335 335 334 334 331 329 326 321 313 304 287 271 259 248
189 198 199 196 192 196 191 193 207 226 246 262 271 274 280 281 279 280 284 285 287 285 285 289 299 311 321 331 337 340 342 344 343 341 339 337 337 337 337 336 334 331 327 320 309 292 273 260 247
184 189 190 189 188 184 175 183 204 227 249 265 274 279 280 280 280 282 286 284 285 285 283 289 298 310 319 331 338 342 346 348 345 343 341 340 340 340 340 340 339 338 333 328 316 301 279 261 249
173 180 181 180 180 175 176 182 199 225 256 270 277 283 284 283 281 285 287 284 283 284 284 289 296 308 317 328 337 342 348 349 347 345 343 342 342 343 344 344 343 342 341 338 330 311 288 263 247
168 171 172 172 170 168 173 179 193 228 268 282 287 287 290 291 289 290 288 285 285 286 287 290 294 304 313 325 334 342 347 349 348 346 345 345 345 346 349 347 348 348 348 348 344 335 310 266 240
164 163 163 162 162 159 162 163 184 245 281 288 293 294 296 298 296 294 292 289 290 290 290 291 293 301 309 321 331 339 345 348 348 347 347 347 347 348 351 352 350 351 350 351 352 349 341 290 240
158 157 159 160 159 158 160 169 195 267 286 298 301 303 303 304 302 297 296 291 290 290 293 295 296 298 305 315 326 335 342 347 348 349 350 350 349 349 350 353 353 354 355 356 359 -0 355 331 251
157 157 157 158 159 158 165 186 243 286 305 310 310 307 308 310 308 304 302 297 293 290 291 294 295 296 302 311 320 329 337 343 346 348 350 351 351 351 351 355 357 358 359 360 2 4 3 344 234
159 158 158 161 167 172 184 223 272 298 314 317 316 312 309 311 311 307 305 303 299 294 291 290 291 295 300 306 315 322 331 338 343 346 348 351 352 354 354 357 359 360 0 2 6 6 5 339 224
157 158 161 169 181 196 222 261 291 311 323 326 321 316 311 310 309 307 306 304 301 296 290 289 289 291 295 301 308 314 322 330 337 342 346 348 352 354 356 358 0 1 0 359 3 12 15 26 168
158 162 168 181 197 229 259 284 301 317 329 329 326 322 316 313 310 308 305 302 299 295 292 289 289 290 291 296 302 308 313 320 328 335 340 344 347 352 355 358 0 2 2 1 3 11 20 32 70
161 167 180 200 225 254 283 298 311 323 329 328 326 323 320 317 314 310 306 302 299 297 294 292 289 290 291 293 296 300 305 311 319 326 332 338 342 346 351 355 359 2 3 4 9 15 22 30 63
162 174 196 230 255 274 290 307 320 323 325 324 324 322 320 318 317 313 307 303 300 299 296 294 292 290 290 289 291 294 298 302 309 315 322 328 333 337 342 347 353 356 360 3 6 10 13 23 51
165 183 233 272 289 293 304 313 320 326 326 325 323 320 319 318 318 317 314 309 304 302 300 297 296 293 291 289 287 288 291 294 299 305 311 316 321 326 331 336 342 349 353 356 357 360 359 357 344
Height
5863 5864 5865 5865 5865 5866 5866 5867 5867 5868 5869 5870 5871 5872 5872 5873 5875 5877 5875 5874 5873 5873 5872 5872 5871 5870 5869 5868 5866 5865 5864 5862 5861 5860 5859 5858 5857 5856 5856 5855 5855 5855 5855 5856 5856 5857 5859 5860 5861
5863 5864 5866 5866 5865 5865 5867 5867 5868 5869 5870 5870 5871 5871 5872 5872 5873 5873 5873 5872 5872 5871 5871 5870 5869 5868 5867 5866 5865 5863 5862 5860 5859 5857 5856 5855 5854 5853 5853 5852 5852 5852 5852 5852 5852 5853 5854 5856 5857
5862 5863 5865 5865 5865 5865 5867 5867 5868 5869 5869 5870 5871 5871 5872 5872 5872 5872 5871 5871 5870 5870 5869 5868 5868 5866 5865 5864 5863 5861 5860 5858 5857 5856 5854 5853 5852 5851 5850 5849 5849 5848 5848 5848 5848 5849 5850 5851 5853
5862 5863 5865 5865 5865 5865 5866 5867 5868 5868 5868 5869 5870 5871 5871 5871 5871 5870 5870 5869 5869 5868 5868 5867 5866 5865 5863 5862 5861 5859 5858 5857 5855 5854 5852 5851 5850 5848 5847 5846 5845 5845 5844 5844 5844 5844 5845 5847 5849
5861 5862 5864 5864 5865 5865 5866 5867 5868 5868 5868 5868 5869 5869 5869 5870 5869 5869 5869 5868 5868 5867 5867 5865 5864 5863 5862 5861 5859 5858 5857 5855 5854 5852 5850 5849 5847 5846 5844 5843 5842 5841 5841 5840 5840 5840 5841 5842 5844
5859 5861 5863 5863 5864 5865 5865 5866 5867 5867 5867 5868 5868 5869 5869 5869 5868 5868 5868 5867 5866 5866 5865 5864 5863 5862 5861 5859 5858 5857 5855 5854 5852 5851 5849 5847 5845 5843 5842 5840 5839 5837 5837 5836 5836 5836 5837 5838 5839
5858 5859 5861 5862 5863 5864 5865 5865 5866 5866 5867 5867 5867 5868 5867 5867 5867 5867 5867 5866 5865 5865 5864 5863 5862 5861 5859 5858 5857 5855 5854 5852 5851 5849 5847 5845 5843 5841 5839 5837 5835 5834 5833 5832 5832 5832 5832 5833 5835
5854 5858 5859 5860 5862 5863 5864 5864 5864 5865 5865 5866 5866 5866 5866 5866 5866 5866 5865 5865 5864 5863 5863 5861 5860 5859 5858 5857 5856 5854 5853 5851 5849 5847 5845 5843 5840 5838 5836 5834 5832 5830 5829 5828 5827 5827 5827 5829 5830
5852 5856 5857 5859 5860 5861 5862 5863 5863 5863 5864 5864 5864 5865 5866 5865 5865 5865 5864 5864 5863 5862 5861 5860 5859 5858 5857 5856 5854 5853 5851 5849 5847 5845 5842 5840 5837 5835 5833 5830 5828 5827 5825 5824 5823 5822 5823 5824 5825
5850 5853 5855 5857 5858 5859 5860 5862 5862 5862 5863 5863 5863 5864 5864 5864 5864 5863 5863 5862 5861 5861 5860 5859 5858 5857 5856 5854 5853 5851 5849 5847 5845 5843 5840 5837 5835 5832 5830 5827 5825 5823 5821 5820 5819 5818 5818 5819 5820
5847 5850 5853 5855 5856 5858 5859 5860 5861 5861 5862 5862 5862 5863 5862 5862 5862 5862 5862 5861 5860 5859 5858 5858 5857 5856 5855 5853 5852 5850 5848 5845 5843 5840 5837 5834 5832 5829 5826 5824 5821 5819 5817 5815 5814 5813 5813 5814 5815
5845 5848 5851 5853 5854 5856 5858 5858 5860 5860 5860 5861 5861 5861 5861 5861 5861 5860 5860 5859 5859 5858 5857 5857 5856 5855 5853 5852 5850 5848 5846 5843 5841 5838 5835 5832 5829 5826 5823 5820 5818 5815 5813 5811 5810 5809 5809 5809 5810
5843 5846 5849 5851 5853 5855 5856 5857 5857 5858 5859 5859 5859 5860 5860 5859 5859 5859 5858 5858 5857 5856 5856 5855 5855 5853 5852 5851 5849 5846 5844 5841 5838 5835 5832 5829 5826 5823 5820 5817 5814 5811 5808 5806 5805 5804 5804 5804 5806
5841 5844 5847 5849 5851 5853 5854 5855 5856 5857 5857 5857 5858 5858 5858 5858 5858 5857 5857 5856 5856 5855 5855 5854 5853 5852 5850 5849 5847 5844 5842 5839 5836 5833 5830 5826 5823 5820 5816 5813 5810 5807 5804 5802 5800 5799 5799 5800 5801
5839 5843 5846 5848 5850 5851 5853 5854 5855 5855 5856 5856 5856 5857 5857 5856 5856 5856 5855 5855 5854 5854 5853 5853 5852 5850 5849 5847 5845 5842 5840 5837 5834 5830 5827 5824 5820 5817 5813 5810 5807 5803 5800 5798 5796 5795 5794 5795 5796
5838 5842 5845 5847 5848 5850 5853 5853 5854 5854 5855 5855 5855 5855 5855 5855 5854 5854 5854 5853 5853 5852 5851 5851 5850 5848 5847 5845 5843 5840 5838 5835 5831 5828 5825 5822 5818 5814 5810 5807 5803 5800 5797 5794 5792 5790 5790 5791 5792
5837 5840 5843 5846 5847 5849 5851 5852 5853 5853 5854 5854 5854 5854 5854 5853 5852 5852 5852 5851 5851 5850 5849 5849 5848 5846 5845 5843 5841 5838 5836 5833 5829 5826 5823 5819 5816 5812 5808 5804 5800 5797 5793 5791 5788 5787 5786 5787 5788
5836 5839 5842 5845 5847 5848 5850 5851 5852 5853 5853 5853 5853 5853 5852 5851 5851 5850 5850 5850 5849 5848 5847 5847 5846 5844 5843 5841 5839 5837 5834 5831 5828 5825 5821 5818 5814 5810 5806 5802 5798 5794 5790 5787 5785 5784 5783 5784 5785
5835 5838 5841 5844 5846 5848 5849 5850 5851 5851 5852 5852 5851 5851 5850 5850 5849 5849 5848 5847 5847 5846 5845 5845 5844 5843 5841 5840 5838 5835 5832 5829 5826 5823 5820 5816 5812 5808 5804 5800 5796 5792 5788 5785 5783 5781 5781 5781 5782
5834 5837 5840 5843 5845 5847 5849 5850 5851 5851 5851 5851 5850 5850 5849 5848 5847 5847 5846 5846 5845 5844 5844 5843 5842 5841 5840 5838 5837 5834 5831 5828 5825 5822 5818 5814 5810 5806 5802 5798 5794 5790 5787 5784 5781 5780 5779 5779 5780
5834 5837 5840 5843 5845 5847 5849 5850 5850 5850 5850 5850 5849 5849 5848 5847 5846 5845 5844 5844 5843 5842 5841 5841 5840 5839 5838 5837 5835 5833 5830 5827 5824 5821 5817 5813 5809 5805 5801 5797 5793 5789 5786 5783 5781 5779 5778 5778 5779
5834 5837 5840 5843 5845 5847 5850 5850 5850 5850 5849 5849 5848 5848 5847 5845 5844 5843 5843 5842 5841 5840 5840 5839 5838 5837 5836 5835 5833 5831 5829 5826 5823 5820 5816 5812 5808 5804 5800 5796 5792 5789 5786 5783 5781 5779 5778 5778 5778
5835 5837 5840 5843 5845 5847 5849 5850 5850 5849 5849 5848 5847 5846 5845 5844 5843 5842 5841 5840 5839 5839 5838 5837 5837 5836 5835 5833 5832 5830 5828 5825 5822 5819 5815 5811 5808 5804 5800 5796 5792 5789 5786 5783 5781 5779 5778 5778 5778
5836 5839 5841 5843 5845 5847 5848 5849 5849 5848 5848 5847 5846 5845 5844 5843 5841 5840 5839 5838 5837 5837 5836 5835 5835 5834 5833 5832 5830 5828 5826 5824 5821 5818 5815 5811 5807 5803 5800 5796 5792 5789 5786 5784 5782 5780 5779 5778 5778
5837 5840 5842 5843 5845 5847 5848 5848 5849 5847 5846 5846 5844 5843 5842 5841 5840 5839 5838 5837 5836 5835 5834 5834 5833 5832 5831 5830 5828 5827 5825 5823 5820 5817 5814 5811 5807 5803 5800 5796 5793 5790 5787 5784 5782 5781 5779 5779 5779
5838 5840 5843 5844 5845 5846 5847 5847 5848 5846 5845 5844 5843 5842 5841 5839 5838 5837 5836 5835 5834 5833 5833 5832 5831 5830 5829 5828 5827 5825 5824 5822 5819 5816 5813 5810 5807 5804 5800 5796 5793 5790 5788 5785 5783 5781 5780 5779 5779
5838 5840 5842 5844 5844 5845 5845 5846 5846 5845 5844 5843 5842 5840 5839 5838 5836 5835 5834 5833 5832 5831 5831 5830 5829 5828 5827 5826 5825 5823 5822 5820 5818 5815 5813 5810 5807 5804 5800 5797 5794 5791 5788 5786 5784 5782 5781 5780 5780
5839 5840 5842 5843 5843 5844 5844 5844 5845 5844 5843 5842 5840 5839 5837 5836 5835 5833 5832 5831 5830 5829 5828 5827 5826 5825 5825 5824 5822 5821 5820 5818 5816 5814 5812 5809 5806 5804 5801 5798 5794 5792 5789 5787 5785 5783 5782 5781 5781
5839 5840 5841 5842 5842 5843 5843 5845 5843 5842 5841 5840 5838 5837 5836 5834 5833 5832 5830 5829 5828 5827 5826 5825 5824 5823 5822 5821 5820 5819 5817 5816 5814 5812 5810 5808 5806 5803 5801 5798 5795 5792 5790 5788 5786 5784 5783 5782 5782
5838 5839 5840 5841 5841 5841 5841 5845 5841 5840 5839 5838 5836 5835 5834 5832 5831 5829 5828 5827 5825 5824 5823 5822 5821 5820 5818 5817 5816 5815 5814 5813 5812 5810 5808 5806 5805 5802 5800 5798 5795 5793 5790 5788 5786 5785 5784 5783 5782